Cloud_Cover
100 100 100 100 100 100 100 100 100 70 27 61 100 100 52 36 56 38 31 90 75 53 65 2 0 0 6 0 0 1 6 13 76 3 0 0 0 0 0 0 0 0 0
92 100 100 39 100 100 100 100 100 100 100 100 44 100 100 98 66 4 86 17 6 26 0 0 0 0 0 0 0 0 0 0 49 94 0 0 0 0 0 0 0 0 0
82 86 93 100 55 71 100 100 94 100 92 100 100 100 91 93 5 4 10 0 0 0 0 0 0 0 0 0 0 1 4 20 44 91 98 28 7 1 0 1 0 0 0
44 79 56 99 100 49 21 79 100 36 94 100 90 94 71 4 1 0 1 0 0 0 0 0 0 0 0 0 0 6 42 83 99 100 100 100 53 0 8 10 34 0 0
51 9 18 1 6 77 100 84 78 98 7 53 28 0 0 0 0 0 0 4 18 8 0 0 0 0 0 0 11 18 57 100 100 100 100 100 100 30 18 0 20 1 0
6 3 0 3 5 5 58 98 64 5 0 0 0 0 0 0 0 0 0 14 9 4 1 0 0 0 9 5 2 5 22 92 100 100 100 100 91 27 0 0 6 35 1
0 0 0 0 0 0 0 0 0 0 0 0 0 0 0 0 0 0 0 2 0 0 0 8 49 66 63 60 48 55 58 40 79 89 100 89 49 11 4 0 7 21 8
2 4 0 0 0 0 0 0 0 0 0 0 0 0 0 0 0 22 2 0 5 16 27 26 94 96 90 95 100 96 100 100 100 100 99 82 64 50 12 4 5 32 50
5 5 3 0 0 0 0 0 0 0 0 0 0 6 20 9 33 2 15 14 68 98 100 100 100 100 100 100 100 95 67 99 100 96 89 73 7 5 5 10 39 93 97
0 0 0 0 0 0 0 0 0 3 15 26 14 0 4 58 38 16 35 100 100 100 100 100 100 100 100 100 100 100 100 25 10 48 76 6 72 100 55 48 58 96 100
0 0 2 4 4 5 5 2 0 0 0 0 0 0 1 2 6 90 100 100 100 100 100 100 100 100 100 100 100 100 100 100 100 100 100 100 100 92 100 100 100 100 100
4 5 8 5 5 2 4 0 0 1 1 1 0 4 8 0 48 100 100 100 98 100 100 100 100 100 100 100 100 100 100 100 100 100 100 100 100 100 99 100 100 100 100
12 5 5 4 5 0 0 3 33 96 59 49 99 14 22 59 100 100 100 100 100 100 100 100 100 100 100 100 100 100 100 100 100 100 100 100 100 100 100 100 100 100 100
5 2 3 0 1 0 0 0 99 100 100 100 100 61 100 94 100 100 100 100 100 100 100 100 100 100 100 100 100 100 100 100 100 100 100 100 100 100 100 100 100 100 100
0 0 2 27 30 17 2 7 46 100 99 100 100 99 96 100 95 100 100 100 100 100 100 100 100 100 100 100 100 100 100 100 100 100 100 100 100 100 100 100 100 100 100
0 0 0 0 0 1 10 98 46 71 94 81 77 56 44 100 100 100 100 100 100 100 100 100 100 100 100 100 100 100 100 100 100 100 100 100 100 100 100 100 100 100 100
0 0 0 0 0 0 0 0 4 0 0 1 0 0 5 55 99 100 100 100 100 100 100 100 100 100 100 100 100 100 100 100 100 100 100 100 100 100 100 100 100 100 100
5 0 0 0 0 0 0 0 0 9 18 0 0 0 4 6 97 99 100 100 100 100 100 100 100 100 100 100 100 100 100 100 100 100 100 100 100 100 100 100 100 100 100
2 0 0 0 0 0 0 0 0 0 0 3 4 2 5 5 74 100 100 100 100 100 100 100 100 100 100 100 100 100 100 100 100 100 100 100 100 100 100 100 100 100 100
0 1 3 0 0 1 5 0 0 0 0 1 0 0 6 4 55 100 100 100 100 100 100 100 100 100 100 100 100 97 100 100 100 100 100 100 100 100 100 100 100 100 100
2 5 4 0 0 5 5 0 0 0 0 0 1 1 5 14 100 100 100 100 100 100 100 100 100 100 98 99 100 68 100 100 100 100 100 100 100 100 100 100 100 100 100
5 4 0 5 5 1 0 0 0 0 0 0 5 28 92 46 72 100 100 100 98 100 100 100 100 100 100 100 94 70 73 88 100 100 100 100 100 100 100 100 100 100 100
0 0 5 5 0 0 0 2 0 0 0 0 8 78 12 100 40 35 97 100 100 100 100 100 100 100 99 100 100 96 100 100 100 100 100 100 100 100 100 100 100 100 100
5 4 4 0 3 5 0 0 0 0 0 2 5 95 71 100 60 98 98 100 100 100 100 100 100 100 100 100 100 94 39 69 92 100 100 100 100 100 100 100 100 100 100
5 4 2 5 4 0 0 0 0 0 0 0 1 11 85 99 100 100 100 97 100 100 100 100 100 100 100 100 99 93 69 73 89 97 100 100 100 100 100 100 100 100 100
11 5 5 1 0 0 0 0 0 0 0 0 0 0 2 73 86 100 63 77 78 100 100 100 100 100 100 100 100 100 100 100 100 81 37 80 100 100 100 100 100 100 100